Location: Isola Pescaroli
(45.0500°N, 10.1667°E)
Time: 14:56:57
(UTC+00:00)

Nadezhda 3 Rocket - Pass Details

Date: 03 March 2021
Orbit: 956 x 1000 km, 82.9° (Epoch: 22 April)

Event Time Altitude Azimuth Distance (km) Brightness Sun altitude
Rises 17:27:32 0° 356° (N) 3,725 7.0 -4.0°
Reaches altitude 10° 17:30:13 10° 3° (N) 2,775 6.3 -4.5°
Maximum altitude 17:36:17 44° 75° (ENE) 1,355 4.4 -5.5°
Drops below altitude 10° 17:42:18 10° 146° (SSE) 2,762 6.1 -6.6°
Sets 17:44:57 0° 153° (SSE) 3,705 6.8 -7.0°
